Regional Weather Roundup
Issued by NWS

Home | Current Version | Previous Version | Graphics & Text | Print | Product List | Glossary On
Versions: 1 2 3 4 5 6 7 8 9 10 11 12 13 14 15 16 17 18 19 20 21 22 23 24 25 26 27 28
000
ASUS45 KCYS 240210
RWRWY

WYOMING REGIONAL WEATHER ROUNDUP
NATIONAL WEATHER SERVICE CHEYENNE WY
800 PM MDT MON APR 23 2018

NOTE:  "FAIR" INDICATES FEW OR NO CLOUDS BELOW 12,000 FEET
WITH NO SIGNIFICANT WEATHER AND/OR OBSTRUCTIONS TO VISIBILITY.

WYZ001-240300-
YELLOWSTONE NATIONAL PARK

CITY           SKY/WX    TMP DP  RH WIND       PRES   REMARKS
LK YELLOWSTONE   N/A     28  20  71 VRB3      30.34R
W YELLOWSTONE  NOT AVBL

$$
WYZ002>013-054>058-071-098>099-240300-
NORTHERN WYOMING

CITY           SKY/WX    TMP DP  RH WIND       PRES   REMARKS
JACKSON        LGT RAIN  39  30  70 NE12G20   30.26R WCI  32
CODY           CLOUDY    35  27  72 N10       30.41R WCI  27
GREYBULL       FAIR      38  31  76 NW25      30.33R WCI  27
WORLAND        MOCLDY    39  31  72 NW21      30.34R WCI  29
SHERIDAN       CLOUDY    35  32  88 NW18      30.40R WCI  24
BUFFALO        CLOUDY    34  29  82 NW21G30   30.35R WCI  22
GILLETTE       CLOUDY    33  31  92 NW22      30.32R FOG     WCI  21
HULETT         LGT SNOW  32  32 100 N14G25    30.30R WCI  22
NEWCASTLE      MOCLDY    32  30  93 NW26G37   30.23R WCI  18

$$
WYZ014>020-022>026-101>103-240300-
CENTRAL WYOMING

CITY           SKY/WX    TMP DP  RH WIND       PRES   REMARKS
BIG PINEY      FAIR      43  22  43 N14       30.22R
PINEDALE       FAIR      41  27  56 NW10      30.23R
DUBOIS         LGT SNOW  32  30  93 SE6       30.26R VSB 1   WCI  26
LANDER         CLOUDY    34  32  92 CALM      30.31R
RIVERTON       CLOUDY    36  26  67 NE10      30.31R WCI  28
CASPER         CLOUDY    33  29  85 N21G29    30.32R WCI  21
DOUGLAS        CLOUDY    36  30  79 NW22G32   30.28R WCI  25

$$
WYZ021-027>030-104>119-240300-
SOUTHERN WYOMING

CITY           SKY/WX    TMP DP  RH WIND       PRES   REMARKS
EVANSTON       FAIR      46  22  38 NW12      30.22R
KEMMERER       FAIR      43  21  42 NW12      30.23R
FORT BRIDGER   FAIR      47  19  32 NW10G18   30.24R
ROCK SPRINGS   FAIR      40  25  55 NE20G29   30.21R WCI  30
DIXON          FAIR      52  28  39 N15       30.16R
RAWLINS        CLOUDY    40  31  70 N16       30.21R WCI  31
SARATOGA       MOCLDY    41  32  70 N16       30.20R
LARAMIE        FAIR      41  37  86 NE5       30.14R
CHEYENNE       MOCLDY    40  38  93 MISG      30.16R
TORRINGTON     MOCLDY    40  38  93 N29G36    30.16F WCI  29
PINE BLUFFS    CLOUDY    43  43 100 N23G31    30.13S

$$




USA.gov is the U.S. government's official web portal to all federal, state and local government web resources and services.